Weather History for KLMT - August, 2013

Change the Weather History Date:

Wednesday, August 21, 2013

  Actual Average Record
Temperature  
Mean Temperature 71 °F 64 °F  
Max Temperature 87 °F 82 °F 93 °F (1950)
Min Temperature 55 °F 46 °F 33 °F (2002)
Degree Days  
Heating Degree Days 0 2  
Month to date heating degree days 35 35  
Since 1 June heating degree days 214 302  
Since 1 July heating degree days 36 85  
Cooling Degree Days 6 1  
Month to date cooling degree days 47 53  
Year to date cooling degree days 265 147  
Since 1 June cooling degree days 265 146  
Growing Degree Days 20 (Base 50)    
Moisture  
Dew Point 43 °F    
Average Humidity 38    
Maximum Humidity 72    
Minimum Humidity 18    
Precipitation  
Precipitation 0.00 in 0.01 in 0.22 in (1965)
Month to date precipitation 0.05 0.25  
Year to date precipitation 4.60 9.56  
Sea Level Pressure  
Sea Level Pressure 29.93 in    
Wind  
Wind Speed 7 mph (NNE)    
Max Wind Speed 31 mph    
Max Gust Speed 43 mph    
Visibility 10 miles    
Events      
T = Trace of Precipitation, MM = Missing Value Source: NWS Daily Summary

Daily Weather History Graph

Daily Weather History Graph

Search for Another Location

Airport or City:

Trip Planner

Search our weather history database for the weather conditions in past years. The results will help you decide how hot, cold, wet, or windy it might be!

Date:

Astronomy

Aug. 21, 2013 Rise Set
Actual Time 6:21 AM PDT 7:57 PM PDT
Civil Twilight 5:51 AM PDT 8:27 PM PDT
Nautical Twilight 5:15 AM PDT 9:03 PM PDT
Astronomical Twilight 4:37 AM PDT 9:41 PM PDT
Moon 8:07 PM PDT (8/21) 7:09 AM PDT (8/21)
Length of Visible Light 14h 35m
Length of Day
13h 36m
Full, 99% of the Moon is Illuminated
Aug 21
Full
Aug 28
Last Quarter
Sep 5
New
Sep 12
First Quarter
Sep 19
Full

Hourly Weather History & Observations

Time (PDT) Temp. Heat Index Dew Point Humidity Pressure Visibility Wind Dir Wind Speed Gust Speed Precip Events Conditions
12:53 AM 70.0 °F - 42.1 °F 36% 29.91 in 10.0 mi NNW 8.1 mph - N/A   Clear
1:53 AM 66.9 °F - 41.0 °F 39% 29.91 in 10.0 mi North 8.1 mph - N/A   Clear
2:53 AM 66.9 °F - 39.0 °F 36% 29.91 in 10.0 mi NNW 10.4 mph - N/A   Clear
3:53 AM 66.0 °F - 42.1 °F 42% 29.92 in 10.0 mi North 8.1 mph - N/A   Clear
4:53 AM 64.9 °F - 37.9 °F 37% 29.91 in 10.0 mi NNW 8.1 mph - N/A   Clear
5:53 AM 59.0 °F - 43.0 °F 55% 29.93 in 10.0 mi North 3.5 mph - N/A   Clear
6:53 AM 55.0 °F - 46.9 °F 74% 29.95 in 10.0 mi Calm Calm - N/A   Clear
7:53 AM 62.1 °F - 46.9 °F 58% 29.95 in 10.0 mi Calm Calm - N/A   Clear
8:53 AM 71.1 °F - 41.0 °F 34% 29.94 in 10.0 mi North 8.1 mph - N/A   Clear
9:53 AM 75.0 °F - 37.9 °F 26% 29.94 in 10.0 mi Variable 4.6 mph - N/A   Clear
10:53 AM 77.0 °F - 35.1 °F 22% 29.93 in 10.0 mi Calm Calm - N/A   Clear
11:53 AM 81.0 °F - 34.0 °F 18% 29.93 in 10.0 mi Calm Calm - N/A   Clear
12:53 PM 81.0 °F - 37.9 °F 21% 29.92 in 10.0 mi SSW 5.8 mph - N/A   Haze
1:53 PM 80.1 °F - 42.1 °F 26% 29.93 in 10.0 mi South 10.4 mph - N/A   Scattered Clouds
2:53 PM 82.9 °F - 37.9 °F 20% 29.91 in 10.0 mi Variable 3.5 mph - N/A   Clear
3:53 PM 84.9 °F - 42.1 °F 22% 29.87 in 10.0 mi Calm Calm - N/A   Clear
4:53 PM 84.9 °F - 43.0 °F 23% 29.85 in 10.0 mi NE 3.5 mph - N/A   Clear
5:53 PM 80.1 °F 80.0 °F 54.0 °F 40% 29.88 in 10.0 mi SE 3.5 mph - N/A   Clear
6:53 PM 75.9 °F - 48.0 °F 37% 29.92 in 8.0 mi SE 23.0 mph 31.1 mph N/A   Mostly Cloudy
7:53 PM 73.0 °F - 48.0 °F 41% 29.92 in 10.0 mi SSE 18.4 mph 31.1 mph N/A   Mostly Cloudy
8:53 PM 71.1 °F - 46.9 °F 42% 29.94 in 10.0 mi South 24.2 mph 35.7 mph N/A   Mostly Cloudy
9:29 PM 71.6 °F - 46.4 °F 41% 30.10 in 10.0 mi West 6.9 mph - N/A   Partly Cloudy
9:53 PM 70.0 °F - 48.0 °F 46% 29.94 in 10.0 mi Variable 5.8 mph - N/A   Clear
10:53 PM 66.9 °F - 50.0 °F 54% 29.96 in 10.0 mi Variable 3.5 mph - N/A   Clear
11:53 PM 63.0 °F - 50.0 °F 63% 29.95 in 10.0 mi ENE 6.9 mph - N/A   Clear